Probability
0 0 0 0 0 0 0 6 3 3 6 3 3 0 0 0 0 0 0 0 0 0 0 0 0 0 0 0 0 0 0 0 0 0 0 0 0 0 0 0 0 0 0
0 0 0 0 0 0 0 3 3 3 3 0 0 0 0 0 0 0 0 0 0 0 0 0 0 0 0 0 0 0 0 0 0 0 0 0 0 0 0 0 0 0 0
0 0 0 0 0 0 0 0 0 0 0 0 0 0 0 0 0 0 0 0 0 0 0 0 0 0 0 0 0 0 0 0 0 0 0 0 0 0 0 0 0 0 0
0 0 0 0 0 0 0 0 0 0 0 0 0 0 0 0 0 0 0 0 0 0 0 0 0 0 0 0 0 0 0 0 0 0 0 0 0 0 0 0 0 0 0
0 0 0 0 0 0 0 0 0 0 0 0 0 0 0 0 0 0 0 0 0 0 0 0 0 0 0 0 0 0 0 0 0 0 0 0 0 0 0 0 0 0 0
0 0 0 0 0 0 0 0 0 0 0 0 0 0 0 0 0 0 0 0 0 0 0 0 0 0 0 0 0 0 0 0 0 0 0 0 0 0 0 0 0 0 0
0 0 0 0 0 0 0 0 0 0 0 0 0 0 0 0 0 0 0 0 0 0 0 0 0 0 0 0 0 0 0 0 0 0 0 0 0 0 0 0 0 0 0
0 0 0 0 0 0 0 0 0 0 0 0 0 0 0 0 0 0 0 0 0 0 0 0 0 0 0 0 0 0 0 0 0 0 0 0 0 0 0 0 0 0 0
0 0 0 0 0 0 0 0 0 0 0 0 0 0 0 0 0 0 0 0 0 0 0 0 0 0 0 0 0 0 0 0 0 0 0 0 0 0 0 0 0 0 0
0 0 0 0 0 0 0 0 0 0 0 0 0 0 0 0 0 0 0 0 0 0 0 0 0 0 0 0 0 0 0 0 0 0 0 0 0 0 0 0 0 0 0
0 0 0 0 0 0 0 0 0 0 0 0 0 0 0 0 0 0 0 0 0 0 0 0 0 0 0 0 0 0 0 0 0 0 0 0 0 0 0 0 0 0 0
0 0 0 0 0 0 0 0 0 0 0 0 0 0 0 0 0 0 0 0 0 0 0 0 0 0 0 0 0 0 0 0 0 0 0 0 0 0 0 0 0 0 0
0 0 0 0 0 0 0 0 0 0 0 0 0 0 0 0 0 0 0 0 0 0 0 0 0 0 0 0 0 0 0 0 0 0 0 0 0 0 0 0 0 0 0
0 0 0 0 0 0 0 0 0 0 0 0 0 0 0 0 0 0 0 0 0 0 0 0 0 0 0 0 0 0 0 0 0 0 0 0 0 0 0 0 0 0 0
0 0 0 0 0 0 0 0 0 0 0 0 0 0 0 0 0 0 0 0 0 0 0 0 0 0 0 0 0 0 0 0 0 0 0 0 0 0 0 0 0 0 0
0 0 0 0 0 0 0 0 0 0 0 0 0 0 0 0 0 0 0 0 0 0 0 0 0 0 0 0 0 0 0 0 0 0 0 0 0 0 0 0 0 0 0
0 0 0 0 0 0 0 0 0 0 0 0 0 0 0 0 0 0 0 0 0 0 0 0 0 0 0 0 0 0 0 0 0 0 0 0 0 0 0 0 0 0 0
0 0 0 0 0 0 0 0 0 0 0 0 0 0 0 0 0 0 0 0 0 0 0 0 0 0 0 0 0 0 0 0 0 0 0 0 0 0 0 0 0 0 0
0 0 0 0 0 0 0 0 0 0 0 0 0 0 0 0 0 0 0 0 0 0 0 0 0 0 0 0 0 0 0 0 0 0 0 0 0 0 0 0 0 0 0
0 0 0 0 0 0 0 0 0 0 0 0 0 0 0 0 0 0 0 0 0 0 0 0 0 0 0 0 0 0 0 0 0 0 0 0 0 0 0 0 0 0 0
0 0 0 0 0 0 0 0 0 0 0 0 0 0 0 0 0 0 0 0 0 0 0 0 0 0 0 0 0 0 0 0 0 0 0 0 0 0 0 0 0 0 0
0 0 0 0 0 0 0 0 0 0 0 0 0 0 0 0 0 0 0 0 0 0 0 0 0 0 0 0 0 0 0 0 0 0 0 0 0 0 0 0 0 0 0
0 0 0 0 0 0 0 0 0 0 0 0 0 0 0 0 0 0 0 0 0 0 0 0 0 0 0 0 0 0 0 0 0 0 0 0 0 0 0 0 0 0 0
0 0 0 0 0 0 0 0 0 0 0 0 0 0 0 0 0 0 0 0 0 0 0 0 0 0 0 0 0 0 0 0 0 0 0 0 0 0 0 0 0 0 0
0 0 0 0 0 0 0 0 0 0 0 0 0 0 0 0 0 0 0 0 0 0 0 0 0 0 0 0 0 0 0 0 0 0 0 0 0 0 0 0 0 0 0
0 0 0 0 0 0 0 0 0 0 0 0 0 0 0 0 0 0 0 0 0 0 0 0 0 0 0 0 0 0 0 0 0 0 0 0 0 0 0 0 0 0 0
Height
5716 5723 5729 5735 5740 5746 5752 5757 5762 5768 5772 5776 5780 5784 5788 5791 5794 5796 5798 5801 5803 5805 5807 5809 5811 5812 5813 5814 5815 5815 5815 5816 5816 5816 5816 5816 5814 5813 5812 5811 5810 5808 5806
5712 5718 5724 5729 5735 5740 5746 5751 5756 5760 5765 5770 5774 5777 5781 5784 5787 5789 5792 5794 5796 5798 5800 5802 5803 5804 5805 5806 5807 5807 5807 5808 5808 5808 5808 5808 5808 5805 5804 5802 5801 5799 5797
5707 5713 5719 5724 5729 5734 5739 5745 5749 5754 5758 5762 5766 5770 5773 5776 5779 5782 5785 5787 5788 5790 5792 5793 5795 5796 5797 5798 5798 5799 5799 5799 5799 5798 5798 5799 5799 5798 5797 5794 5792 5790 5788
5702 5708 5713 5719 5724 5729 5733 5738 5742 5747 5751 5755 5758 5761 5765 5768 5770 5774 5777 5779 5780 5782 5784 5785 5786 5787 5788 5789 5789 5790 5790 5790 5790 5789 5789 5788 5788 5787 5787 5786 5783 5781 5779
5697 5702 5708 5713 5718 5723 5728 5732 5736 5740 5744 5748 5751 5754 5758 5761 5763 5766 5768 5770 5772 5774 5775 5776 5777 5778 5779 5780 5780 5780 5781 5781 5780 5780 5779 5778 5777 5776 5775 5775 5773 5771 5769
5691 5697 5702 5708 5712 5717 5721 5725 5729 5733 5737 5740 5743 5746 5749 5752 5755 5758 5760 5761 5763 5765 5766 5767 5768 5769 5770 5770 5771 5771 5771 5771 5770 5770 5769 5768 5767 5766 5764 5764 5763 5761 5759
5686 5692 5697 5702 5706 5711 5714 5718 5722 5726 5730 5733 5735 5738 5741 5744 5747 5749 5751 5753 5755 5756 5757 5758 5759 5760 5760 5760 5761 5761 5761 5761 5760 5760 5759 5758 5756 5755 5753 5752 5751 5750 5748
5681 5686 5691 5696 5700 5704 5708 5712 5715 5719 5722 5725 5727 5730 5733 5736 5738 5740 5742 5744 5745 5746 5747 5748 5749 5750 5750 5751 5751 5751 5751 5750 5750 5749 5748 5747 5745 5743 5742 5740 5739 5738 5737
5677 5681 5685 5690 5694 5698 5701 5705 5708 5711 5714 5717 5719 5722 5724 5727 5729 5731 5733 5735 5736 5737 5738 5738 5739 5740 5740 5740 5740 5740 5740 5740 5739 5738 5736 5735 5733 5731 5730 5728 5726 5725 5724
5672 5676 5680 5684 5687 5691 5695 5698 5701 5703 5706 5709 5711 5713 5715 5718 5720 5722 5723 5725 5726 5727 5728 5728 5729 5729 5730 5730 5729 5729 5729 5728 5727 5726 5725 5723 5721 5720 5717 5715 5713 5711 5710
5667 5671 5674 5677 5681 5684 5687 5690 5693 5695 5698 5700 5703 5705 5707 5709 5710 5712 5713 5715 5716 5717 5717 5718 5718 5718 5719 5719 5718 5718 5717 5717 5715 5714 5713 5711 5709 5707 5705 5703 5701 5699 5697
5662 5665 5668 5671 5674 5677 5679 5682 5685 5687 5689 5691 5694 5696 5697 5699 5700 5702 5703 5704 5705 5706 5707 5707 5707 5708 5708 5707 5707 5707 5706 5705 5704 5703 5701 5699 5698 5696 5693 5691 5689 5687 5685
5657 5659 5661 5664 5667 5669 5671 5673 5675 5678 5680 5682 5684 5686 5687 5689 5690 5691 5692 5693 5694 5695 5696 5696 5696 5696 5696 5696 5696 5695 5694 5693 5692 5691 5690 5688 5686 5684 5682 5680 5677 5675 5673
5650 5652 5654 5656 5658 5660 5662 5663 5665 5667 5669 5671 5673 5675 5676 5678 5679 5680 5681 5682 5683 5684 5684 5685 5685 5685 5685 5685 5684 5684 5683 5682 5681 5680 5678 5676 5675 5673 5671 5668 5666 5664 5662
5642 5644 5646 5647 5649 5651 5652 5654 5655 5657 5658 5660 5662 5663 5665 5666 5667 5668 5670 5671 5671 5672 5673 5673 5674 5674 5674 5673 5673 5673 5672 5671 5670 5668 5667 5665 5663 5661 5659 5657 5655 5653 5651
5635 5636 5637 5638 5639 5641 5642 5643 5644 5646 5647 5649 5650 5651 5653 5654 5655 5657 5658 5659 5660 5661 5662 5662 5662 5662 5662 5662 5662 5662 5661 5660 5659 5657 5656 5654 5652 5650 5648 5646 5644 5643 5641
5627 5627 5628 5629 5630 5630 5631 5633 5634 5635 5636 5637 5638 5640 5641 5642 5644 5645 5646 5647 5648 5649 5650 5651 5651 5651 5651 5651 5651 5650 5649 5649 5648 5646 5645 5643 5641 5640 5638 5636 5634 5632 5631
5618 5618 5618 5618 5619 5620 5620 5621 5622 5623 5624 5625 5626 5627 5628 5630 5631 5633 5634 5635 5637 5638 5639 5639 5640 5640 5640 5640 5640 5639 5638 5637 5636 5635 5634 5632 5631 5629 5627 5625 5624 5622 5621
5608 5608 5607 5607 5607 5608 5608 5609 5609 5610 5611 5612 5613 5614 5616 5617 5619 5620 5621 5623 5624 5626 5627 5628 5628 5629 5629 5629 5628 5628 5627 5626 5625 5624 5623 5622 5620 5619 5617 5616 5614 5613 5612
5597 5597 5596 5595 5595 5595 5595 5596 5596 5597 5598 5599 5600 5601 5603 5604 5606 5607 5609 5610 5612 5613 5614 5615 5616 5617 5617 5617 5617 5616 5616 5615 5615 5614 5612 5611 5610 5609 5607 5606 5605 5604 5603
5586 5585 5584 5583 5582 5582 5582 5583 5583 5583 5584 5585 5586 5588 5589 5591 5592 5594 5596 5597 5599 5600 5602 5603 5604 5605 5605 5606 5606 5605 5605 5604 5604 5603 5602 5601 5600 5599 5598 5597 5596 5595 5595
5574 5572 5571 5570 5569 5568 5569 5569 5569 5570 5570 5571 5572 5574 5575 5577 5579 5581 5583 5584 5586 5588 5590 5591 5592 5593 5594 5594 5594 5594 5594 5594 5593 5593 5592 5591 5590 5590 5589 5588 5587 5587 5586
5561 5559 5558 5557 5556 5555 5554 5555 5555 5555 5556 5557 5558 5560 5561 5563 5565 5567 5569 5571 5573 5575 5577 5579 5580 5581 5582 5583 5583 5583 5583 5583 5583 5582 5582 5582 5581 5580 5580 5579 5579 5578 5578
5547 5546 5544 5543 5542 5540 5539 5540 5540 5541 5541 5543 5544 5545 5547 5549 5551 5553 5556 5558 5560 5562 5564 5566 5568 5569 5570 5571 5572 5572 5573 5572 5572 5572 5572 5572 5572 5571 5571 5571 5570 5570 5570
5532 5530 5529 5528 5526 5525 5525 5524 5525 5525 5527 5528 5529 5531 5533 5535 5537 5539 5542 5544 5547 5549 5552 5554 5556 5558 5559 5560 5561 5561 5562 5562 5562 5562 5563 5563 5563 5563 5562 5562 5562 5562 5562
5515 5514 5512 5511 5510 5509 5509 5508 5508 5510 5511 5513 5515 5516 5518 5520 5523 5526 5529 5531 5534 5536 5539 5541 5544 5546 5547 5548 5550 5550 5551 5551 5552 5553 5553 5553 5553 5554 5554 5554 5554 5553 5553
Wind_Speed
44 42 40 39 37 35 33 32 32 33 35 35 36 35 35 36 35 34 33 32 31 30 29 30 30 31 31 32 33 34 34 35 36 36 37 37 38 39 40 40 41 42 43
44 42 39 38 37 36 35 34 33 33 34 34 35 35 36 37 37 35 34 33 33 32 32 32 32 32 33 34 35 36 37 37 38 38 39 38 38 40 41 42 43 44 45
44 42 41 39 37 36 34 34 35 34 34 33 35 36 36 36 37 37 36 35 34 34 35 35 35 35 36 36 37 37 38 38 39 39 40 40 40 40 41 43 44 45 46
43 41 41 39 38 37 37 36 35 34 34 34 33 34 34 34 35 36 35 36 35 36 36 37 38 38 39 39 39 40 40 41 41 42 43 43 44 44 43 43 45 46 45
41 40 40 39 38 37 37 37 36 36 35 36 36 35 35 35 35 35 35 36 36 37 38 38 38 39 40 41 41 42 43 43 43 43 44 44 45 46 46 45 45 45 45
39 39 39 39 39 38 38 37 37 37 36 37 37 37 36 36 35 36 36 37 38 38 39 39 39 40 41 41 42 43 44 45 45 46 46 46 47 47 47 47 46 46 46
36 37 38 39 38 38 38 37 38 38 38 38 38 38 38 38 38 38 39 39 39 39 39 40 41 42 43 43 43 44 45 45 45 46 47 47 48 48 48 48 48 48 47
34 35 37 37 37 37 37 37 37 38 38 38 39 39 39 39 40 41 41 41 40 40 41 41 42 42 43 44 44 45 45 46 46 47 48 49 50 50 51 51 51 50 50
32 33 35 36 37 36 37 37 37 37 37 37 38 38 39 39 40 41 42 43 43 42 42 43 43 44 44 46 47 47 48 49 50 50 51 52 52 52 52 52 52 52 51
32 32 33 36 37 37 37 37 37 37 37 37 37 38 39 40 40 41 42 43 44 44 45 45 46 46 47 48 48 49 50 50 51 51 51 51 52 52 52 51 51 51 50
32 33 33 34 36 37 37 37 38 39 38 38 38 39 40 40 41 42 43 43 44 45 46 47 47 48 48 49 49 49 49 50 50 50 50 50 50 50 50 50 49 49 49
31 33 33 35 36 37 38 39 39 40 41 40 40 41 41 42 43 43 44 45 45 46 47 48 48 49 49 49 49 49 49 49 49 49 49 49 49 48 48 48 48 48 48
29 31 33 35 37 38 39 41 42 43 44 44 44 44 44 45 45 45 45 46 46 47 47 47 47 47 48 47 47 48 48 48 48 47 47 46 46 46 46 46 46 47 46
30 32 34 36 38 40 41 43 44 45 45 46 46 46 46 46 46 46 46 46 47 47 47 46 46 46 46 46 46 46 46 46 46 45 45 45 45 45 45 45 45 44 44
31 34 35 37 39 41 42 44 45 46 46 47 47 47 47 47 47 46 46 47 47 47 46 45 45 45 46 45 45 45 45 44 44 44 44 44 44 44 44 43 43 43 42
33 34 36 38 39 41 43 44 45 46 47 47 48 47 47 47 47 47 47 46 46 46 45 45 45 45 44 44 44 44 43 43 43 43 43 43 43 43 43 42 42 41 40
33 35 37 39 41 42 43 44 45 46 47 47 48 48 47 47 47 47 47 47 46 46 45 45 45 44 44 44 44 44 43 43 43 43 43 43 43 43 42 41 40 39 38
35 37 39 40 42 43 44 45 46 46 47 47 48 48 48 48 48 47 47 47 46 46 46 45 45 45 45 44 44 43 43 43 42 42 42 42 42 41 40 39 37 37 36
37 38 40 41 42 43 44 45 46 47 47 47 47 47 47 47 47 47 47 47 47 46 46 45 45 45 44 44 43 42 42 41 41 41 41 41 40 39 37 36 35 34 33
39 40 41 42 43 44 45 45 46 46 47 47 47 47 47 46 46 46 46 46 46 45 45 44 44 43 43 42 41 41 41 41 40 40 39 38 38 37 35 34 33 32 31
40 41 42 43 44 45 46 46 46 47 47 47 47 47 47 46 46 46 45 45 45 44 44 44 43 42 42 41 41 40 40 40 39 39 38 37 36 34 33 33 32 31 30
41 42 43 44 45 45 46 46 46 46 46 46 46 46 46 46 46 45 45 44 44 44 43 42 41 41 41 40 40 39 38 38 38 37 36 35 33 32 32 32 31 31 29
42 43 44 44 45 46 46 46 46 46 46 46 46 45 45 45 45 45 44 44 44 43 42 41 41 40 40 39 38 38 37 37 36 35 34 33 32 31 31 30 29 28 28
46 46 47 47 47 47 47 46 46 46 46 46 46 46 45 44 44 44 44 43 43 42 42 41 40 40 39 38 38 37 36 35 34 34 32 31 30 30 30 29 28 27 27
48 48 49 49 49 48 48 47 46 46 45 45 44 45 45 45 44 43 43 42 42 42 41 40 40 39 38 38 37 36 36 35 33 32 31 31 30 29 29 28 28 27 27
47 49 49 49 49 49 49 48 48 47 46 45 44 43 43 43 43 43 42 42 42 41 41 40 40 39 38 38 37 36 35 34 32 31 31 30 30 29 29 28 28 28 27
Wind_Direction
223 224 225 225 225 227 226 225 225 225 225 226 228 229 231 231 233 235 237 239 243 246 249 253 256 260 262 264 265 267 268 269 271 272 274 277 280 282 284 286 287 288 290
223 225 228 229 229 230 231 230 230 230 230 231 233 232 233 234 235 237 239 241 244 248 252 255 259 261 263 265 267 268 270 271 272 274 275 275 278 282 284 286 287 289 290
224 225 228 230 232 234 236 236 235 235 235 238 238 237 238 239 239 240 242 244 247 251 252 255 259 261 263 266 268 269 270 272 273 274 276 277 278 280 283 285 286 288 290
223 226 230 233 235 237 239 240 240 240 239 239 239 240 241 242 243 243 246 248 251 253 254 257 261 262 264 266 268 269 271 272 274 276 278 280 281 282 284 285 287 288 289
222 226 230 232 234 236 239 241 242 242 241 241 241 241 244 246 248 248 250 253 255 256 257 259 261 263 265 267 268 269 271 273 275 277 280 282 283 284 285 286 288 288 288
225 227 228 230 234 236 239 241 241 242 243 243 244 245 247 250 251 251 253 256 258 259 261 262 262 263 266 268 271 271 273 274 276 278 280 282 284 285 286 286 287 288 289
225 228 229 231 234 236 239 240 241 242 242 244 245 247 249 250 252 253 255 257 260 262 263 264 265 266 268 270 272 274 275 276 278 280 282 283 285 285 286 287 287 288 288
225 229 230 231 233 236 239 240 242 242 242 244 246 248 249 251 253 255 257 259 261 263 264 266 267 268 270 271 273 275 276 277 279 281 282 283 285 286 287 287 287 287 288
227 228 229 231 234 236 238 240 242 244 245 246 248 249 250 252 254 255 257 259 261 263 265 268 270 271 273 274 276 277 277 279 280 281 282 284 285 286 287 288 288 288 288
229 231 233 235 237 238 239 240 242 244 247 248 250 251 252 253 255 257 258 261 263 265 266 268 271 272 274 276 277 278 279 280 281 282 284 286 287 287 288 288 288 288 288
236 236 237 240 240 239 240 241 243 245 247 249 252 253 254 255 256 258 260 262 263 265 266 269 271 273 275 276 277 278 280 282 283 284 285 286 287 287 287 288 287 287 287
240 241 242 242 243 243 244 245 247 248 249 250 253 254 255 256 258 260 262 263 264 265 267 270 272 273 275 276 278 279 281 282 283 284 285 286 286 286 287 287 288 288 288
241 242 244 244 245 246 247 248 250 251 252 253 254 255 256 257 259 260 262 263 265 267 268 270 271 273 274 275 277 279 281 282 283 284 285 286 286 287 287 288 288 288 288
243 243 244 245 246 248 249 250 252 253 254 255 256 257 258 259 260 261 262 263 265 267 268 270 271 273 274 276 278 279 281 282 283 284 284 285 286 288 288 289 289 288 287
246 246 245 246 247 248 250 251 252 254 255 255 256 257 258 259 260 261 262 264 265 267 268 270 271 273 275 277 278 280 281 282 283 283 285 286 287 288 288 289 289 288 287
248 248 247 248 249 250 251 252 253 254 255 256 257 258 258 259 260 261 262 263 265 266 268 269 271 273 275 277 278 279 281 282 283 284 284 286 287 287 288 288 288 287 286
253 252 252 252 252 252 253 253 254 255 256 256 257 258 258 259 260 260 261 263 265 266 267 269 271 272 274 276 278 279 280 281 282 283 285 286 287 287 287 288 287 286 284
258 258 257 257 256 256 255 255 256 256 257 257 258 258 259 259 259 260 261 262 264 265 267 268 270 272 274 275 277 278 279 281 282 283 284 285 286 287 287 287 287 286 285
262 261 261 260 260 260 259 259 258 258 258 258 259 259 259 260 260 260 261 262 263 264 266 267 269 271 273 275 276 278 279 281 282 283 284 284 285 285 285 285 285 285 284
265 264 264 263 262 262 262 261 261 260 260 259 259 259 259 259 260 260 260 261 262 264 265 267 268 270 272 274 276 277 278 279 281 281 282 283 283 283 283 284 284 283 282
268 267 267 266 265 264 263 263 262 262 262 261 261 260 260 260 260 260 260 261 261 263 264 266 267 269 271 273 275 276 277 278 279 280 281 281 281 281 281 282 281 281 280
271 270 269 269 268 267 265 265 264 263 262 262 261 260 260 260 259 259 259 259 260 261 262 263 265 267 269 271 273 274 275 277 277 278 279 279 279 278 279 280 279 279 278
272 271 271 270 270 269 268 266 265 264 263 262 261 260 259 259 258 257 258 258 259 260 261 262 264 266 267 269 271 273 274 275 276 276 276 277 276 277 278 278 278 277 275
273 272 272 271 271 271 269 268 266 264 263 262 261 260 259 257 256 256 256 257 257 258 259 260 262 264 266 267 269 271 272 273 273 274 274 274 274 276 277 276 274 274 273
274 273 272 272 271 270 269 268 266 265 263 261 260 259 258 256 255 255 255 255 255 256 257 258 260 262 264 265 267 269 270 270 271 270 271 272 273 274 273 272 272 272 272
277 274 273 273 271 270 269 268 266 264 263 261 259 258 257 256 254 253 253 253 253 254 255 256 258 259 261 264 266 267 267 267 267 268 269 269 270 270 270 270 271 271 272